[[{"header":{"parameterUnit":"m.s-1","parameterCategory":1,"la1":30.2991,"la2":30.254,"lo1":-89.0895,"lo2":-89.0444,"dy":0.0017,"dx":0.0017,"nx":28,"ny":28,"refTime":"2025-06-08T03:00:00:Z","depth":0,"parameterNumber":2,"parameterNumberName":"U-component_of_WINDS"},"data":[0,0,0,0,0,0,0,0,0,0,0,0,0,0,0,0,0,0,0,0,0,0,0,0,0,0,0,0,0,0,0,0,0,0,0,0,0,0,0,0,0,0,0,0,0,0,0,0,0,0,0,0,0,0,0,0,0,0,5.8093,5.8095,0,5.8269,5.8271,5.8273,5.823,5.8227,5.8223,5.822,5.84,5.8408,5.8416,0,0,0,0,0,0,0,0,0,0,0,0,0,5.7716,5.7723,5.8093,5.8095,5.8097,5.8269,5.8271,5.8274,5.8231,5.8227,5.8222,5.8219,5.8397,5.8407,5.8416,0,0,0,0,0,0,0,0,0,0,0,0,0,5.7885,5.7725,5.8092,5.8096,5.8099,5.8268,5.8271,5.8274,5.8232,5.8227,5.8221,5.8217,5.8394,5.8406,5.8418,5.8594,0,0,5.8454,5.8459,0,0,0,0,0,0,0,0,5.7875,5.7898,5.8094,5.8096,5.8099,5.8222,5.8204,5.8381,5.8233,5.8181,5.822,5.8214,5.8345,5.8361,5.8405,5.8602,5.861,5.8455,5.8462,5.8468,5.8471,0,0,0,0,0,0,0,5.7863,5.7891,5.8162,5.8096,5.81,5.8088,5.8107,5.8238,5.829,5.8185,5.8183,5.8204,5.8345,5.8394,5.8409,5.8613,5.8455,5.8465,5.8473,5.8478,5.8959,5.8964,0,0,0,0,0,0,5.785,5.7881,5.8157,5.8168,5.7972,5.8099,5.812,5.8188,5.8288,5.8298,5.8208,5.8201,5.8376,5.8395,5.8415,5.8624,5.8467,5.8479,5.8486,5.8953,5.896,5.8966,0,0,0,0,0,0,5.7842,5.7875,5.815,5.8024,5.8058,5.8111,5.8188,5.8194,5.8242,5.8305,5.8314,5.8248,5.8372,5.8398,5.8549,5.863,5.8484,5.8495,5.8946,5.8955,5.8963,5.9046,0,0,0,0,0,0,5.7831,5.7872,5.7941,5.8026,5.8065,5.8282,5.8193,5.8201,5.8263,5.8256,5.8345,5.8355,5.837,5.8531,5.8561,5.8644,5.8504,5.8939,5.895,5.896,5.9036,5.9056,5.9073,0,0,0,0,0,5.7818,5.7958,5.7944,5.7978,5.8151,5.8286,5.8309,5.8324,5.827,5.8338,5.8378,5.8352,5.8617,5.8547,5.858,5.8668,5.8934,5.8947,5.8959,5.9028,5.9052,5.9073,0,0,0,0,0,0,5.7881,5.7969,5.7955,5.8127,5.8199,5.8279,5.8365,5.835,5.8439,5.8429,5.8443,5.8464,5.8616,5.8658,5.8578,5.8841,5.8768,5.8787,5.8808,5.8832,5.885,5.8836,5.8514,0,0,0,0,0,5.7915,5.8018,5.8089,5.8234,5.8271,5.8312,5.8371,5.8377,5.8452,5.8483,5.8534,5.8608,5.8707,5.8773,5.8868,5.9043,5.9059,5.9119,5.9138,5.9153,5.9169,5.926,5.9286,5.9007,5.9007,5.9007,0,0,5.7986,5.8047,5.8111,5.8248,5.8305,5.8409,5.8338,5.8453,5.8529,5.85,5.8644,5.8684,5.8768,5.893,5.9004,5.8969,5.925,5.9169,5.918,5.9188,5.9275,5.9302,5.9325,5.9016,5.9014,5.9013,0,0,5.8168,5.8226,5.835,5.8409,5.8495,5.8521,5.8551,5.8633,5.8658,5.8804,5.8782,5.8874,5.9046,5.9105,5.9157,5.9359,5.9337,5.939,5.9486,5.9575,5.9597,5.9616,5.9684,5.9709,5.9407,5.9407,5.9407,0,5.8245,5.8402,5.8417,5.8532,5.8591,5.8569,5.8694,5.875,5.8863,5.8904,5.8863,5.9076,5.9131,5.9305,5.9353,5.9399,5.9431,5.9379,5.9593,5.9612,5.963,5.9695,5.9721,5.9412,5.9412,5.9411,5.9411,0,5.849,5.8599,5.869,5.8798,5.8868,5.8988,5.9019,5.9088,5.9087,5.9117,5.9263,5.9328,5.9434,5.9477,5.9478,5.965,5.9624,5.9589,5.9514,5.9662,5.9723,5.9748,5.942,5.9418,5.9417,5.9415,0,0,5.8716,5.883,5.8862,5.891,5.9003,5.9087,5.9205,5.9308,5.9365,5.9445,5.9541,5.9686,5.9652,5.9712,5.9719,5.9798,5.9948,5.9752,5.9754,5.9782,6.0137,6.016,6.0189,5.9935,5.994,5.9944,6.0128,0,5.8902,5.911,5.9125,5.9311,5.941,5.939,5.9492,5.9559,5.9591,5.9678,5.9712,5.9813,5.9763,5.9798,5.9875,5.9913,6.0019,5.9901,6.0022,6.0027,5.9998,6.0222,6.0248,6.0418,6.0153,6.0157,6.016,0,5.9148,5.9232,5.9428,5.9504,5.9546,5.9638,5.9732,5.9817,5.9892,5.9909,5.9974,5.997,6.0089,6.0012,6.0174,6.0094,6.0144,6.0171,6.0178,6.0186,6.0099,6.0232,6.0474,6.0497,6.0198,6.0195,6.0192,0,5.9287,5.9451,5.9588,5.963,5.9723,5.9787,5.9829,5.9899,5.9959,6.0042,6.008,6.0176,6.0227,6.0301,6.0321,6.0265,6.0481,6.0408,6.0496,6.0495,6.054,6.0536,6.0788,6.058,6.0579,6.0579,6.0578,0,5.9492,5.9611,5.9651,5.9735,5.9867,5.9884,6.0014,6.0052,6.0114,6.0203,6.0193,6.0277,6.0301,6.0389,6.0407,6.0535,6.056,6.0575,6.0577,6.0574,6.0571,6.0604,6.0591,6.0585,6.0584,6.0583,6.0581,0,5.9668,5.97,5.9848,5.9924,5.9945,6.0039,6.0103,6.0183,6.0212,6.0325,6.0352,6.0398,6.0501,6.0529,6.0653,6.0665,6.0814,6.0808,6.0789,6.0787,6.0872,6.0862,6.1151,6.1188,6.0959,6.0962,6.0963,0,5.9795,5.9886,5.9971,6.003,6.0074,6.017,6.023,6.025,6.0314,6.0404,6.0472,6.0574,6.0655,6.082,6.0863,6.0956,6.095,6.1045,6.0963,6.0955,6.0946,6.0938,6.0945,6.1059,6.1061,6.1063,6.1065,0,6.0014,6.0025,6.0113,6.0206,6.0279,6.0353,6.0425,6.0473,6.0503,6.0574,6.0679,6.0742,6.0867,6.0966,6.1061,6.1102,6.1087,6.109,6.1115,6.111,6.1093,6.1098,6.0826,6.1083,6.1081,6.108,6.1079,6.1078,6.0167,6.0245,6.0316,6.0414,6.0469,6.0536,6.0613,6.0651,6.0739,6.0841,6.0848,6.096,6.103,6.1155,6.1202,6.1288,6.126,6.1297,6.1305,6.1313,6.1317,6.1082,6.1306,6.1306,6.1305,6.1305,6.1305,0,6.0381,6.0426,6.0516,6.0615,6.0691,6.0672,6.0749,6.0813,6.0912,6.0979,6.1059,6.1177,6.1273,6.1323,6.1418,6.1477,6.1472,6.1501,6.1495,6.1503,6.134,6.1307,6.1503,6.1503,6.1503,6.1503,6.1503,6.1503,6.0502,6.0632,6.0651,6.0807,6.0851,6.096,6.1005,6.1065,6.1118,6.125,6.133,6.1362,6.1422,6.152,6.1606,6.1618,6.1651,6.1683,6.1691,6.1536,6.1516,6.1496,6.1465,6.1691,6.1691,6.1847,6.1848,6.1849]},{"header":{"parameterUnit":"m.s-1","parameterCategory":1,"la1":30.2991,"la2":30.254,"lo1":-89.0895,"lo2":-89.0444,"dy":0.0017,"dx":0.0017,"nx":28,"ny":28,"refTime":"2025-06-08T03:00:00:Z","depth":0,"parameterNumber":3,"parameterNumberName":"V-component_of_WINDS"},"data":[0,0,0,0,0,0,0,0,0,0,0,0,0,0,0,0,0,0,0,0,0,0,0,0,0,0,0,0,0,0,0,0,0,0,0,0,0,0,0,0,0,0,0,0,0,0,0,0,0,0,0,0,0,0,0,0,0,0,3.8309,3.831,0,3.8422,3.8423,3.8424,3.8409,3.8407,3.8405,3.8403,3.8515,3.852,3.8525,0,0,0,0,0,0,0,0,0,0,0,0,0,3.8075,3.8079,3.8309,3.831,3.8311,3.8421,3.8423,3.8424,3.8409,3.8407,3.8404,3.8402,3.8514,3.8519,3.8525,0,0,0,0,0,0,0,0,0,0,0,0,0,3.8181,3.8081,3.8308,3.8317,3.8319,3.8421,3.8423,3.8425,3.8409,3.8407,3.8404,3.8401,3.8512,3.8519,3.8526,3.8625,0,0,3.8547,3.855,0,0,0,0,0,0,0,0,3.8175,3.819,3.8314,3.8317,3.8319,3.8398,3.8382,3.8492,3.841,3.8375,3.8403,3.84,3.8478,3.8488,3.8515,3.8631,3.8635,3.8548,3.8552,3.8555,3.8557,0,0,0,0,0,0,0,3.8168,3.8185,3.8353,3.8316,3.8319,3.8314,3.8326,3.8402,3.8441,3.8378,3.8377,3.8391,3.8479,3.8508,3.8518,3.8637,3.8548,3.8554,3.8558,3.8561,3.8837,3.884,0,0,0,0,0,0,3.8159,3.8179,3.835,3.8357,3.8239,3.832,3.8334,3.8376,3.844,3.8447,3.8393,3.839,3.8498,3.8509,3.8522,3.8641,3.8555,3.8562,3.8566,3.8834,3.8838,3.8841,0,0,0,0,0,0,3.8154,3.8174,3.8345,3.8267,3.8289,3.8327,3.8374,3.8379,3.8409,3.8452,3.8458,3.8416,3.8496,3.8512,3.8599,3.8645,3.8565,3.8572,3.883,3.8835,3.8839,3.8881,0,0,0,0,0,0,3.8147,3.8172,3.8212,3.8269,3.8293,3.8423,3.8377,3.8383,3.8421,3.8418,3.8475,3.8482,3.8495,3.8589,3.8606,3.8653,3.8577,3.8826,3.8832,3.8838,3.8876,3.8887,3.8896,0,0,0,0,0,3.8139,3.8219,3.8214,3.8235,3.8344,3.8425,3.8439,3.8454,3.8425,3.8464,3.8491,3.848,3.8637,3.8598,3.8618,3.8667,3.8824,3.8831,3.8837,3.8872,3.8885,3.8896,0,0,0,0,0,0,3.8166,3.8227,3.8222,3.8323,3.8369,3.8423,3.8473,3.8467,3.8522,3.8516,3.8531,3.8544,3.8632,3.8658,3.8614,3.8765,3.8726,3.8737,3.8745,3.8758,3.8768,3.876,3.8583,0,0,0,0,0,3.8184,3.8247,3.8296,3.838,3.8404,3.8434,3.847,3.8477,3.8525,3.8545,3.8578,3.8624,3.8683,3.8722,3.8779,3.888,3.8891,3.8923,3.8933,3.8941,3.895,3.9003,3.9018,3.8864,3.8864,3.8864,0,0,3.8222,3.8263,3.8301,3.8387,3.8424,3.8486,3.8451,3.8519,3.8566,3.8555,3.864,3.8665,3.8717,3.8811,3.8854,3.8836,3.8995,3.895,3.8956,3.8961,3.9012,3.9026,3.9039,3.8868,3.8868,3.8867,0,0,3.8322,3.836,3.8434,3.8471,3.8527,3.8547,3.8564,3.8618,3.8635,3.8721,3.8713,3.8767,3.887,3.8907,3.8939,3.9051,3.9042,3.9069,3.9121,3.9172,3.9184,3.9195,3.9234,3.9247,3.9078,3.9078,3.9078,0,3.8362,3.8458,3.8472,3.8542,3.8579,3.8572,3.8645,3.868,3.8752,3.8776,3.8755,3.8882,3.8917,3.9018,3.9045,3.9072,3.9091,3.9062,3.9182,3.9193,3.9203,3.924,3.9254,3.9081,3.9081,3.908,3.908,0,3.8503,3.8569,3.8622,3.8691,3.8734,3.8805,3.8829,3.887,3.8872,3.8893,3.8979,3.902,3.9085,3.9109,3.9113,3.9211,3.9197,3.9179,3.9139,3.922,3.9255,3.9269,3.9085,3.9084,3.9083,3.9082,0,0,3.8625,3.8701,3.872,3.875,3.881,3.8861,3.8931,3.8994,3.9029,3.9077,3.9135,3.9221,3.9203,3.924,3.9247,3.9292,3.9376,3.9267,3.9269,3.9285,3.9484,3.9498,3.9514,3.937,3.9373,3.9375,3.948,0,3.873,3.8855,3.8869,3.8979,3.904,3.9033,3.9093,3.9136,3.9157,3.9209,3.9232,3.9292,3.9265,3.9287,3.9331,3.9356,3.9416,3.9349,3.9422,3.9425,3.9409,3.9532,3.9547,3.9644,3.9493,3.9496,3.9497,0,3.8871,3.8924,3.904,3.909,3.9116,3.917,3.9229,3.928,3.9327,3.9339,3.9378,3.9379,3.9448,3.9406,3.9501,3.9455,3.9486,3.9502,3.9506,3.9513,3.9466,3.9542,3.9675,3.9689,3.9519,3.9517,3.9516,0,3.8947,3.9047,3.9129,3.9156,3.9217,3.9255,3.9281,3.9326,3.9362,3.9413,3.9436,3.9494,3.9525,3.9569,3.9584,3.9552,3.9678,3.9637,3.9688,3.9687,3.9714,3.9713,3.9854,3.9735,3.9735,3.9735,3.9734,0,3.9063,3.9134,3.9164,3.9215,3.9293,3.9308,3.9385,3.9409,3.9448,3.9502,3.9499,3.955,3.9567,3.9619,3.9632,3.9707,3.9722,3.9732,3.9734,3.9732,3.973,3.9752,3.9745,3.9739,3.9738,3.9737,3.9736,0,3.9161,3.9184,3.9273,3.9323,3.9337,3.9393,3.9435,3.9483,3.9502,3.957,3.9586,3.9617,3.9678,3.9698,3.9772,3.978,3.9868,3.9864,3.9852,3.9852,3.9901,3.9896,4.0061,4.0083,3.995,3.9952,3.9953,0,3.9233,3.9288,3.9344,3.938,3.9408,3.9467,3.9504,3.952,3.9558,3.9615,3.9655,3.9716,3.9766,3.9863,3.9891,3.9947,3.9944,3.9998,3.9953,3.9948,3.9944,3.994,3.9945,4.0006,4.0008,4.0009,4.001,0,3.9359,3.9367,3.9422,3.948,3.9525,3.9572,3.9616,3.9646,3.9667,3.971,3.9773,3.9812,3.9887,3.9947,4.0003,4.0029,4.0023,4.0024,4.0038,4.0036,4.0027,4.0031,3.9875,4.002,4.0019,4.0018,4.0018,4.0017,3.9446,3.9493,3.9539,3.96,3.9635,3.9676,3.9723,3.9748,3.9802,3.9865,3.987,3.9938,3.9981,4.0056,4.0084,4.0136,4.0121,4.0142,4.0147,4.0152,4.0155,4.0019,4.0147,4.0146,4.0146,4.0146,4.0146,0,3.957,3.9599,3.9654,3.9717,3.9764,3.9755,3.9803,3.9842,3.9902,3.9944,3.9992,4.0064,4.0121,4.0153,4.021,4.0245,4.0243,4.0259,4.0256,4.0262,4.0167,4.0148,4.0259,4.0259,4.0259,4.0259,4.0259,4.0259,3.964,3.9719,3.9733,3.9829,3.9857,3.9924,3.9952,3.9989,4.0022,4.0102,4.0151,4.0171,4.0208,4.0267,4.0318,4.0326,4.0346,4.0364,4.037,4.028,4.0269,4.0258,4.024,4.0369,4.0369,4.046,4.0461,4.0462]}]]